• In Netherlands
  • List of Countries
  • For 7 days
  • Water Temperature
  • Satellite Maps
  • Weather Map
  • Weather Widgets
  • user-avatar
    Login

    Hourly Weather Blagoevgrad

    Today, 26 September, Wednesday

    Time Temperature Precipitation Wind Pressure Humidity
    00:00 +6°C° 0 mm 2 mps 731 mmHg 61%
    01:00 +5°C° 0 mm 2 mps 731 mmHg 63%
    02:00 +6°C° 0 mm 2 mps 731 mmHg 63%
    03:00 +5°C° 0 mm 2 mps 731 mmHg 65%
    04:00 +5°C° 0 mm 2 mps 731 mmHg 68%
    05:00 +4°C° 0 mm 2 mps 731 mmHg 70%
    06:00 +6°C° 0 mm 2 mps 731 mmHg 64%
    07:00 +7°C° 0 mm 2 mps 732 mmHg 59%
    08:00 +8°C° 0 mm 2 mps 732 mmHg 53%
    09:00 +10°C° 0 mm 3 mps 732 mmHg 46%
    10:00 +12°C° 0 mm 3 mps 732 mmHg 39%
    11:00 +14°C° 0 mm 4 mps 732 mmHg 32%
    12:00 +14°C° 0 mm 4 mps 732 mmHg 31%
    13:00 +15°C° 0 mm 4 mps 731 mmHg 29%
    14:00 +17°C° 0 mm 4 mps 731 mmHg 27%
    15:00 +15°C° 0 mm 4 mps 731 mmHg 29%
    16:00 +14°C° 0 mm 4 mps 730 mmHg 31%
    17:00 +14°C° 0 mm 5 mps 730 mmHg 34%
    18:00 +11°C° 0 mm 4 mps 730 mmHg 41%
    19:00 +9°C° 0 mm 3 mps 731 mmHg 49%
    20:00 +7°C° 0 mm 3 mps 731 mmHg 57%
    21:00 +6°C° 0 mm 2 mps 731 mmHg 60%
    22:00 +6°C° 0 mm 2 mps 732 mmHg 63%
    23:00 +5°C° 0 mm 2 mps 732 mmHg 66%

    Tomorrow, 27 September, Thursday

    Time Temperature Precipitation Wind Pressure Humidity
    00:00 +5°C° 0 mm 2 mps 732 mmHg 66%
    01:00 +4°C° 0 mm 2 mps 732 mmHg 67%
    02:00 +4°C° 0 mm 2 mps 731 mmHg 67%
    03:00 +4°C° 0 mm 2 mps 731 mmHg 66%
    04:00 +3°C° 0 mm 2 mps 731 mmHg 66%
    05:00 +3°C° 0 mm 2 mps 731 mmHg 65%
    06:00 +5°C° 0 mm 2 mps 731 mmHg 58%
    07:00 +6°C° 0 mm 2 mps 731 mmHg 51%
    08:00 +8°C° 0 mm 3 mps 731 mmHg 44%
    09:00 +10°C° 0 mm 3 mps 731 mmHg 37%
    10:00 +13°C° 0 mm 3 mps 730 mmHg 30%
    11:00 +15°C° 0 mm 4 mps 730 mmHg 22%
    12:00 +18°C° 0 mm 4 mps 730 mmHg 20%
    13:00 +19°C° 0 mm 4 mps 729 mmHg 18%
    14:00 +20°C° 0 mm 4 mps 729 mmHg 17%
    15:00 +19°C° 0 mm 4 mps 728 mmHg 18%
    16:00 +19°C° 0 mm 4 mps 728 mmHg 19%
    17:00 +18°C° 0 mm 3 mps 727 mmHg 21%
    18:00 +14°C° 0 mm 3 mps 727 mmHg 27%
    19:00 +12°C° 0 mm 2 mps 727 mmHg 33%
    20:00 +8°C° 0 mm 2 mps 727 mmHg 39%
    21:00 +8°C° 0 mm 2 mps 727 mmHg 40%
    22:00 +7°C° 0 mm 2 mps 727 mmHg 41%
    23:00 +7°C° 0 mm 2 mps 727 mmHg 42%

    Day after tomorrow, 28 September, Friday

    Time Temperature Precipitation Wind Pressure Humidity
    00:00 +7°C° 0 mm 2 mps 727 mmHg 41%
    01:00 +7°C° 0 mm 2 mps 727 mmHg 41%
    02:00 +6°C° 0 mm 2 mps 727 mmHg 40%
    03:00 +6°C° 0 mm 2 mps 726 mmHg 39%
    04:00 +7°C° 0 mm 1 mps 726 mmHg 39%
    05:00 +8°C° 0 mm 1 mps 726 mmHg 38%
    06:00 +9°C° 0 mm 1 mps 726 mmHg 35%
    07:00 +11°C° 0 mm 1 mps 726 mmHg 32%
    08:00 +13°C° 0 mm 1 mps 726 mmHg 29%
    09:00 +15°C° 0 mm 1 mps 725 mmHg 25%
    10:00 +19°C° 0 mm 1 mps 725 mmHg 21%
    11:00 +22°C° 0 mm 1 mps 725 mmHg 17%
    12:00 +23°C° 0 mm 1 mps 724 mmHg 17%
    13:00 +24°C° 0 mm 1 mps 723 mmHg 17%
    14:00 +25°C° 0 mm 2 mps 723 mmHg 17%
    15:00 +24°C° 0 mm 2 mps 722 mmHg 19%
    16:00 +24°C° 0 mm 2 mps 722 mmHg 22%
    17:00 +23°C° 0 mm 2 mps 721 mmHg 24%
    18:00 +20°C° 0 mm 1 mps 721 mmHg 29%
    19:00 +18°C° 0 mm 1 mps 721 mmHg 33%
    20:00 +14°C° 0 mm 1 mps 721 mmHg 38%
    21:00 +14°C° 0 mm 1 mps 721 mmHg 39%
    22:00 +14°C° 0 mm 1 mps 721 mmHg 39%
    23:00 +14°C° 0 mm 1 mps 721 mmHg 40%

    29 September, Saturday

    Time Temperature Precipitation Wind Pressure Humidity
    00:00 +14°C° 0 mm 1 mps 721 mmHg 41%
    01:00 +14°C° 0 mm 1 mps 720 mmHg 42%
    02:00 +14°C° 0 mm 1 mps 720 mmHg 43%
    03:00 +14°C° 0.1 mm 1 mps 720 mmHg 46%
    04:00 +14°C° 0.1 mm 1 mps 720 mmHg 48%
    05:00 +14°C° 0.1 mm 1 mps 719 mmHg 50%
    06:00 +14°C° 0.2 mm 1 mps 720 mmHg 51%
    07:00 +15°C° 0.2 mm 1 mps 720 mmHg 53%
    08:00 +15°C° 0.2 mm 1 mps 720 mmHg 54%
    09:00 +16°C° 0.3 mm 1 mps 720 mmHg 53%
    10:00 +17°C° 0.3 mm 2 mps 720 mmHg 53%
    11:00 +18°C° 0.3 mm 2 mps 720 mmHg 52%
    12:00 +19°C° 0.1 mm 2 mps 720 mmHg 50%
    13:00 +19°C° 0.1 mm 2 mps 720 mmHg 49%
    14:00 +20°C° 0.1 mm 2 mps 719 mmHg 47%
    15:00 +20°C° 0 mm 2 mps 719 mmHg 46%
    16:00 +20°C° 0 mm 2 mps 719 mmHg 45%
    17:00 +20°C° 0 mm 3 mps 719 mmHg 44%
    18:00 +17°C° 0 mm 2 mps 719 mmHg 49%
    19:00 +15°C° 0 mm 2 mps 720 mmHg 55%
    20:00 +13°C° 0 mm 2 mps 720 mmHg 60%
    21:00 +13°C° 0 mm 2 mps 720 mmHg 61%
    22:00 +12°C° 0 mm 2 mps 720 mmHg 61%
    23:00 +12°C° 0 mm 2 mps 720 mmHg 61%

    30 September, Sunday

    Time Temperature Precipitation Wind Pressure Humidity
    00:00 +10°C° 0 mm 2 mps 721 mmHg 63%
    01:00 +10°C° 0 mm 2 mps 721 mmHg 64%
    02:00 +10°C° 0 mm 2 mps 721 mmHg 66%
    03:00 +9°C° 0 mm 2 mps 721 mmHg 68%
    04:00 +9°C° 0 mm 2 mps 721 mmHg 71%
    05:00 +9°C° 0 mm 2 mps 721 mmHg 73%
    06:00 +10°C° 0 mm 2 mps 722 mmHg 69%
    07:00 +12°C° 0 mm 2 mps 722 mmHg 65%
    08:00 +13°C° 0 mm 2 mps 722 mmHg 60%
    09:00 +15°C° 0 mm 2 mps 722 mmHg 56%
    10:00 +17°C° 0 mm 3 mps 723 mmHg 51%
    11:00 +18°C° 0 mm 3 mps 723 mmHg 47%
    12:00 +19°C° 0 mm 3 mps 722 mmHg 47%
    13:00 +19°C° 0 mm 3 mps 722 mmHg 47%
    14:00 +20°C° 0 mm 3 mps 722 mmHg 47%
    15:00 +19°C° 0.1 mm 3 mps 722 mmHg 51%
    16:00 +18°C° 0.1 mm 3 mps 722 mmHg 55%
    17:00 +18°C° 0.1 mm 3 mps 722 mmHg 59%
    18:00 +16°C° 0.2 mm 2 mps 722 mmHg 66%
    19:00 +14°C° 0.2 mm 2 mps 722 mmHg 74%
    20:00 +13°C° 0.2 mm 2 mps 722 mmHg 81%
    21:00 +13°C° 0.4 mm 2 mps 722 mmHg 82%
    22:00 +12°C° 0.4 mm 2 mps 722 mmHg 84%
    23:00 +12°C° 0.4 mm 1 mps 722 mmHg 85%

    1 October, Monday

    Time Temperature Precipitation Wind Pressure Humidity
    00:00 +12°C° 0.3 mm 1 mps 722 mmHg 86%
    01:00 +12°C° 0.3 mm 1 mps 721 mmHg 86%
    02:00 +12°C° 0.3 mm 1 mps 721 mmHg 87%
    03:00 +12°C° 0.1 mm 1 mps 721 mmHg 88%
    04:00 +12°C° 0.1 mm 1 mps 720 mmHg 88%
    05:00 +11°C° 0.1 mm 1 mps 720 mmHg 89%
    06:00 +12°C° 0.1 mm 1 mps 720 mmHg 85%
    07:00 +13°C° 0.1 mm 1 mps 720 mmHg 81%
    08:00 +14°C° 0.1 mm 1 mps 720 mmHg 77%
    09:00 +18°C° 0 mm 1 mps 720 mmHg 68%
    10:00 +20°C° 0 mm 1 mps 719 mmHg 59%
    11:00 +22°C° 0 mm 1 mps 719 mmHg 50%
    12:00 +23°C° 0 mm 1 mps 719 mmHg 46%
    13:00 +24°C° 0 mm 2 mps 718 mmHg 42%
    14:00 +25°C° 0 mm 2 mps 718 mmHg 37%
    15:00 +24°C° 0 mm 2 mps 718 mmHg 39%
    16:00 +23°C° 0 mm 2 mps 717 mmHg 40%
    17:00 +23°C° 0 mm 2 mps 717 mmHg 42%
    18:00 +20°C° 0 mm 2 mps 717 mmHg 49%
    19:00 +18°C° 0 mm 1 mps 717 mmHg 56%
    20:00 +15°C° 0 mm 1 mps 718 mmHg 63%
    21:00 +15°C° 0 mm 1 mps 718 mmHg 65%
    22:00 +14°C° 0 mm 1 mps 718 mmHg 67%
    23:00 +13°C° 0 mm 1 mps 718 mmHg 69%
    Show more